Regional Weather Roundup
Issued by NWS

Home | Current Version | Previous Version | Text Only | Print | Product List | Glossary On
Versions: 1 2 3 4 5 6 7 8 9 10 11 12 13 14 15 16 17 18 19 20 21 22 23 24 25 26 27 28 29 30 31 32 33 34 35 36 37 38 39 40 41 42 43 44 45 46 47 48 49 50
000
ASUS42 KKEY 191410
RWRKEY

FLORIDA REGIONAL WEATHER ROUNDUP FOR THE FLORIDA KEYS
NATIONAL WEATHER SERVICE KEY WEST FLORIDA
1000 AM EDT FRI SEP 19 2014

...SOUTH FLORIDA AND THE KEYS...

CITY           SKY/WX    TMP DP  RH WIND       PRES   REMARKS
FORT MYERS     CLOUDY    78  76  93 E5        29.95R
SW REGIONAL AP CLOUDY    78  66  66 E3        29.95R
NAPLES         CLOUDY    78  76  93 SE6       29.95R
MIAMI          PTSUNNY   84  74  71 SW5       29.97S HX  91
WEST KENDALL   CLOUDY    82  74  76 SW7       29.97S
HOMESTEAD      CLOUDY    80  73  78 SW6       29.97S
MARATHON       CLOUDY    82  75  79 S3        29.97R
BOCA CHICA NAS CLOUDY    83  75  77 S5        29.96S HX  90
KEY WEST INTL  CLOUDY    84  74  71 S5        29.96S HX  91

...INTERNATIONAL WEATHER...

CITY           SKY/WX    TMP DP  RH WIND       PRES   REMARKS
NASSAU BAHAMAS PTSUNNY   84  77  79 CALM      29.98R HX  94
CANCUN MEXICO  PTSUNNY   84  75  74 SE9       29.93S HX  92
COZUMEL MEXICO MOSUNNY   79  75  89 SE6       29.94R

ADJACENT COASTAL WATERS...

STATION/POSITION TIME  SKY/WX   TEMP    WIND        PRES    WAVE
                                AIR SEA DIR/SP/G            HT/PER
                 (UTC)          (F)     (DEG/KT/KT) (MB)    (FT/S)
PULASKI SHOAL LI 1400            84     200/  7/  8 1014.2R
SAND KEY         1336            83     190/  5/  6 1014.6R
SOMBRERO KEY     1400            83     190/  7/  8 1015.5R
LONG KEY         1256            83 85  210/  5/  6 1015.4R
MOLASSES REEF    1400            83 85  200/  7/  8 1014.9R
FOWEY ROCKS      1400            85 85  190/  4/  4 1015.1R
Buoy 42080       NOT AVBL

$$



USA.gov is the U.S. government's official web portal to all federal, state and local government web resources and services.